Starlink 6107

operational
NORAD ID: 56117 Int'l Des: 2023-046 Owner: SPXS Country: US Constellation: starlink
LEOCIRCULAR

Über Starlink 6107

Beschreibung wird geladen...

Live-Position

3D-Globus wird geladen...

Nächste Überflüge

Höhenverlauf

Altitude vs Time

uPlot chart will show altitude changes over time

Zweizeiliger Elementsatz

1 56117U 23046AA 26035.14793166 .00001050 00000-0 92799-4 0 9994
2 56117 43.0052 328.4738 0001251 275.4951 84.5749 15.02543200157162
Epoch: 4. Feb. 2026 • Age: 11 hours

Aktueller Status

Höhe 567.6 km
Geschwindigkeit 7.58 km/s
Subsatellitenpunkt -32.88°S, 157.4°W
Startdatum 29. März 2023
Alter 2.8 years
Typ internet

Technische Details

Klassifizierung Payload
Masse 305.00 kg
Trockenmasse 290.00 kg
Gesamtmasse 305.00 kg
Länge 0.20 m
Durchmesser 2.80 m
Spannweite 9.00 m
Form Box + pan
Hersteller SPXS
Bus-Typ Starlink
Phasenstatus In Orbit
Besitzer/Staat SPXS/US

Große Konstellationen

Loading constellations...